Location: *
(13.2257°S, 48.7193°W)
Time: 03:54:41
(UTC+00:00)

Meteor 2-8 Rocket - Visible Passes

Search period start: 14 May 2026 00:00
Search period end: 24 May 2026 00:00
Orbit: 936 x 958 km, 82.5° (Epoch: 13 May)

Date Brightness Start Highest point End Pass type
(mag) Time Alt. Az. Time Alt. Az. Time Alt. Az.
14 May 4.5 09:00:33 10° NNW 09:06:35 61° W 09:12:41 10° S visible
15 May 7.0 07:34:43 10° NE 07:38:57 20° E 07:43:13 10° SE visible
16 May 6.1 07:50:07 10° NNE 07:55:37 35° E 08:01:08 10° SSE visible
17 May 5.0 08:06:15 10° N 08:12:18 62° E 08:18:24 10° SSE visible
18 May 4.4 08:22:54 10° N 08:29:03 76° W 08:35:14 10° S visible
18 May 7.5 21:19:23 10° WSW 21:21:52 13° W 21:24:21 10° WNW visible
19 May 7.1 06:58:03 10° ENE 07:01:29 15° E 07:04:55 10° SE visible
19 May 4.8 08:40:04 10° NNW 08:45:50 42° W 08:51:39 10° SSW visible
20 May 6.3 07:13:00 10° NNE 07:18:07 28° E 07:23:16 10° SE visible
20 May 5.4 08:57:51 10° NW 09:02:40 24° W 09:07:31 10° SSW visible
21 May 5.3 07:28:53 10° NNE 07:34:48 50° E 07:40:44 10° SSE visible
22 May 4.4 07:45:22 10° N 07:51:31 88° E 07:57:43 10° S visible
23 May 7.2 06:21:53 10° ENE 06:24:00 12° E 06:26:07 10° ESE visible
23 May 4.5 08:02:19 10° NNW 08:08:17 53° W 08:14:18 10° S visible
